Overview Statistics Trail Chart Weather Telemetry Raw packets
 

This is the latest recevied weather packets stored in our database for station/object KQ4LLM. If no packets are shown the sender has not sent any weather packets the latest 10 day(s).

<< 69 70 71 72 73 74 75 >>
Time Temp. Humidity Pressure Rain* Wind** Luminosity Snow
1788192259 29.44° C 67% - 0 mm - - -
1788191959 28.89° C 67% - 0 mm - - -
1788191654 29.44° C 71% - 0 mm - - -
1788191349 28.89° C 71% - 0 mm - - -
1788191046 28.33° C 70% - 0 mm - - -
1788190744 28.89° C 73% - 0 mm - - -
1788190440 28.33° C 75% - 0 mm - - -
1788190136 27.78° C 77% - 0 mm - - -
1788189832 27.78° C 77% - 0 mm - - -
1788189531 27.78° C 77% - 0 mm - - -
1788189230 28.33° C 75% - 0 mm - - -
1788188925 28.33° C 75% - 0 mm - - -
1788188621 27.78° C 76% - 0 mm - - -
1788188320 27.78° C 77% - 0 mm - - -
1788188017 27.78° C 76% - 0 mm - - -
1788187713 27.78° C 78% - 0 mm - - -
1788187409 27.22° C 81% - 0 mm - - -
1788187109 27.22° C 80% - 0 mm - - -
1788186804 27.22° C 81% - 0 mm - - -
1788186499 27.22° C 80% - 0 mm - - -
1788186194 26.67° C 81% - 0 mm - - -
1788185894 26.67° C 82% - 0 mm - - -
1788185589 26.67° C 83% - 0 mm - - -
1788185284 26.11° C 84% - 0 mm - - -
1788184978 26.11° C 86% - 0 mm - - -

* Rain latest hour (hover to see other rain measurements)
** Current wind speed in m/s (hover to see current wind gust speed)